Wind_Speed
65 63 60 58 56 55 54 53 53 53 53 52 51 50 50 51 51 50 50 50 50 52 54 55 55 52 50 48 47 47 48 49 50 51 51 51 50 50 49 49 51 52 51 45 36 29 26 24 22 20 19 20 21 21 21 20 19 19 19 20 20 20 20 19 18 18 17 17 17 16 16 17 17 18 18 17 16 14 12 11 11 10 10 10 10 10
60 58 56 55 53 53 52 50 49 49 49 49 49 49 51 52 51 49 47 46 47 49 53 55 55 52 49 46 45 45 47 49 51 53 53 53 52 51 50 49 50 51 50 43 35 29 26 25 22 20 19 20 21 21 21 20 20 20 20 20 21 21 20 19 18 18 17 17 17 17 17 18 19 19 19 17 15 12 11 10 10 10 10 10 10 11
56 56 56 56 56 56 55 53 51 50 49 49 49 50 52 51 48 45 43 42 42 44 46 48 48 46 44 43 43 45 47 50 53 54 55 54 53 52 50 49 50 50 48 41 33 28 26 25 22 21 20 20 21 21 21 20 20 20 20 21 21 21 21 20 19 18 17 17 17 17 17 18 19 19 18 15 12 10 9 9 9 9 10 10 11 11
56 57 58 58 58 59 58 57 55 53 51 50 50 49 49 47 44 42 40 39 38 38 38 38 38 38 38 40 41 44 46 50 53 55 55 55 54 53 51 50 50 49 46 38 31 27 26 24 23 21 20 20 21 21 21 21 20 20 20 21 22 22 22 20 19 18 18 17 17 17 17 17 17 16 14 11 9 8 9 9 9 10 10 11 11 12
58 59 59 60 60 60 59 58 56 54 52 50 49 47 45 43 41 40 39 38 37 36 35 34 34 34 36 37 40 42 45 49 52 54 54 54 54 53 51 51 50 48 43 36 30 27 26 24 23 21 20 20 21 21 21 21 21 21 21 21 22 22 22 21 20 19 18 17 17 16 16 15 14 13 11 9 9 9 10 11 11 10 11 11 12 13
59 60 60 59 59 59 58 57 56 54 52 50 48 46 43 42 40 39 38 37 36 35 35 34 34 35 35 37 39 41 44 47 50 52 53 54 53 52 52 51 50 47 41 34 29 27 26 25 23 22 21 21 21 21 21 21 21 21 21 22 22 23 22 21 20 19 18 17 17 16 15 14 13 12 10 10 10 11 12 12 11 11 11 12 13 14
58 58 58 57 57 56 56 55 53 51 49 47 45 43 41 40 40 39 38 37 36 35 35 34 35 35 36 37 39 41 43 46 49 51 53 53 53 52 52 51 50 45 39 32 29 27 26 25 24 23 22 21 21 21 21 21 22 22 22 22 23 23 22 21 20 18 17 17 16 16 15 14 13 12 12 12 12 13 13 13 12 12 12 13 14 15
52 54 54 54 54 54 53 51 49 46 44 42 40 39 38 38 39 39 38 38 37 36 35 35 35 35 35 37 39 42 44 46 49 51 53 53 53 53 52 52 49 44 37 32 29 28 27 26 25 23 22 21 20 21 21 22 22 22 23 23 23 23 22 21 20 18 17 17 16 16 15 15 14 13 13 13 13 14 14 13 13 13 13 14 15 16
46 48 50 50 50 50 49 48 45 43 40 38 37 36 36 37 37 38 38 38 37 36 35 35 34 35 35 37 41 44 47 48 50 52 53 54 54 54 54 52 48 43 36 32 29 28 28 27 25 24 22 21 20 21 21 22 23 23 23 23 23 23 22 21 20 18 18 17 17 16 16 15 15 14 14 14 14 14 14 14 13 13 14 15 16 16
41 43 44 46 46 45 45 44 43 41 39 38 37 36 36 36 37 37 38 38 38 37 36 35 34 34 35 38 42 46 49 51 52 53 54 54 55 55 55 52 48 42 36 32 30 29 28 27 25 24 22 21 20 21 22 23 23 24 24 23 23 22 22 21 20 19 18 17 17 17 16 16 15 15 15 15 15 15 15 14 14 14 15 16 17 17
39 39 39 40 39 39 39 39 39 38 37 37 36 36 36 36 36 36 36 36 36 36 35 35 34 34 35 39 44 49 52 53 54 54 54 55 55 56 55 52 47 41 36 32 31 30 29 27 25 23 22 21 21 21 22 23 24 24 24 23 23 22 22 21 20 19 18 18 18 17 17 16 16 16 16 16 16 16 15 15 15 15 16 17 18 18
37 36 36 35 34 34 34 34 34 34 34 34 35 35 35 35 34 34 33 33 33 33 33 33 33 34 36 40 46 50 53 55 55 55 55 55 56 56 55 52 47 41 35 33 31 31 29 27 25 23 22 21 21 22 23 24 24 24 24 23 23 22 21 21 20 19 19 19 18 18 17 17 16 16 16 16 16 16 16 15 15 15 16 18 18 19
36 35 34 33 32 31 31 31 31 31 31 32 32 33 32 32 31 31 30 30 30 31 31 31 32 32 35 39 45 50 53 55 55 55 55 55 56 56 55 51 46 40 35 33 32 31 29 27 25 23 22 21 21 22 23 24 25 25 24 23 23 22 21 21 20 20 19 19 19 18 17 17 17 16 16 16 16 16 16 15 15 16 17 18 19 19
36 35 34 33 32 32 31 31 30 30 30 30 30 30 30 29 29 28 28 29 29 29 30 30 30 30 33 37 43 48 52 54 54 54 54 54 55 55 54 50 44 38 34 33 32 31 29 26 24 23 22 22 22 23 23 24 25 25 24 23 23 22 21 21 20 20 20 20 19 18 18 17 17 17 17 17 16 16 16 16 16 16 18 19 19 19
36 36 35 34 34 33 32 31 30 30 29 29 29 29 29 29 28 28 28 28 28 28 29 29 29 29 32 36 40 45 50 52 53 53 52 52 53 54 52 47 41 36 33 33 32 30 28 26 24 23 23 22 22 23 24 24 25 25 24 23 23 22 22 21 21 21 20 20 19 19 18 17 17 17 17 17 17 17 16 16 16 17 18 19 20 20
38 37 37 36 35 35 34 33 32 31 30 30 30 30 30 29 29 29 29 29 29 29 29 29 29 30 32 35 39 43 48 51 52 51 50 49 51 51 49 43 38 35 33 33 32 30 28 26 25 24 23 23 23 23 24 25 25 25 24 23 23 22 22 21 21 21 21 20 20 19 18 18 17 17 17 17 17 17 16 16 17 17 19 20 20 20
39 39 38 37 37 36 35 35 34 33 32 32 32 32 31 31 30 30 30 30 30 30 30 29 30 31 33 35 38 42 46 49 50 49 48 48 49 48 45 40 36 34 34 33 32 30 28 26 25 25 24 24 23 23 24 25 25 25 24 24 23 23 22 22 22 21 21 21 20 19 19 18 18 17 17 17 17 17 17 17 17 18 19 20 21 21
39 39 38 38 38 37 37 36 36 35 34 33 33 33 33 32 32 31 31 31 31 31 31 30 30 32 34 36 39 42 45 48 49 48 47 47 47 45 41 37 35 34 34 33 32 30 28 26 26 25 25 24 23 23 24 25 25 25 24 24 23 23 23 22 22 22 22 21 20 20 19 18 18 18 18 18 18 18 17 17 18 19 20 20 21 21
38 38 38 37 37 38 38 38 37 36 36 35 34 34 34 34 33 33 32 31 31 31 31 30 31 32 34 36 38 42 45 48 49 48 47 46 43 40 37 35 34 34 34 33 31 29 28 27 26 26 25 25 24 24 24 25 25 25 25 24 24 23 23 23 22 22 22 21 21 20 19 19 19 18 18 18 18 18 18 18 19 20 20 21 21 21
36 36 36 36 36 37 37 37 37 37 37 37 36 35 35 35 35 34 33 32 31 30 30 30 31 32 33 35 38 41 45 48 49 48 46 43 40 37 35 34 34 35 34 33 31 29 28 27 27 27 26 25 24 24 25 25 25 25 25 24 24 24 23 23 23 22 22 22 21 20 20 19 19 19 19 19 19 19 18 19 19 20 21 21 22 22
34 34 34 34 35 35 36 36 37 37 38 38 37 37 36 36 36 35 34 32 31 31 30 30 31 32 33 34 37 42 45 47 47 46 43 39 37 35 34 34 34 35 34 33 31 29 29 28 28 27 26 26 25 25 25 26 26 26 25 25 24 24 24 23 23 23 22 22 21 21 20 20 19 19 20 20 19 19 19 19 20 21 22 22 22 22
33 33 33 33 33 33 33 34 35 36 37 38 38 38 38 37 37 36 35 33 32 32 32 32 33 33 32 33 37 42 45 45 44 41 39 36 35 34 34 34 34 35 34 33 31 30 29 29 28 28 27 26 26 25 26 26 26 26 25 25 24 24 24 24 23 23 23 22 22 21 20 20 20 20 20 20 20 20 20 20 21 22 22 23 23 23
33 33 32 32 31 31 31 32 33 34 36 37 38 38 38 38 37 36 35 34 34 33 34 34 34 33 32 34 38 42 44 42 39 37 35 34 34 34 34 34 35 35 35 33 32 30 30 29 29 28 27 27 26 26 26 26 26 26 26 25 25 24 24 24 24 23 23 23 22 21 21 20 20 21 21 21 21 20 21 21 22 22 23 23 23 23
33 33 32 32 31 30 29 30 31 32 34 36 37 38 39 38 37 36 35 34 34 34 35 36 35 34 34 36 40 42 41 39 35 33 33 34 34 34 34 34 35 35 35 34 33 31 30 30 29 29 28 27 27 26 26 27 27 26 26 25 25 25 24 24 24 24 24 23 22 22 21 21 21 21 21 21 21 21 21 22 22 23 23 24 24 24
34 33 33 32 31 29 28 28 29 30 31 33 35 37 37 37 37 36 35 35 35 35 35 36 35 35 36 39 41 41 39 35 33 32 34 35 36 35 35 35 36 36 36 35 33 32 31 30 30 29 28 28 27 27 27 27 27 26 26 25 25 25 25 25 24 24 24 24 23 22 22 22 22 22 22 22 22 22 22 22 23 23 24 24 24 24
35 34 33 32 31 30 29 28 28 28 29 30 32 33 33 33 33 33 34 35 35 36 36 35 36 37 38 40 41 39 36 33 33 34 36 37 37 36 36 36 37 37 36 35 34 32 31 31 30 29 29 28 28 27 27 28 27 27 26 25 25 25 25 25 25 25 25 24 24 23 22 22 22 23 23 23 23 23 23 23 23 24 25 25 25 25
36 35 34 33 32 31 30 29 28 28 28 28 29 29 29 29 28 29 31 33 35 36 36 36 37 39 40 41 40 37 35 34 36 37 38 38 38 37 37 37 37 37 36 35 34 33 32 31 30 29 29 28 28 28 28 28 28 27 26 26 25 25 25 25 25 25 25 25 24 24 23 23 23 23 23 24 24 24 24 24 24 25 25 26 26 26
36 36 35 34 33 32 31 30 29 28 28 28 28 28 28 26 25 25 27 30 33 35 36 36 37 38 39 39 38 36 35 37 39 40 39 39 38 38 37 37 37 37 36 35 34 33 32 31 31 30 29 29 28 28 28 28 28 27 26 26 26 25 25 26 26 26 26 25 25 24 24 24 24 24 24 24 24 25 25 25 25 25 26 26 26 26
37 37 36 35 34 33 33 32 31 29 29 29 29 29 28 27 25 24 24 27 30 32 33 33 34 36 37 37 36 35 36 39 41 41 39 39 39 38 38 37 37 37 35 35 34 33 33 32 31 30 29 29 29 28 28 28 28 27 27 26 26 26 26 26 26 26 26 26 25 25 24 24 24 25 25 25 25 25 25 25 25 26 26 27 27 27
38 38 37 36 35 34 33 32 31 30 29 29 29 28 28 27 26 26 25 26 28 30 30 31 32 34 35 35 35 36 38 40 41 40 39 39 39 38 38 37 37 36 35 35 34 33 33 32 31 30 30 29 29 28 28 28 28 28 27 26 26 26 26 26 26 27 26 26 26 26 25 25 25 25 26 26 26 26 26 26 26 26 27 27 27 27
39 38 38 36 35 34 33 32 32 31 30 29 28 28 27 26 26 26 27 27 28 30 31 32 32 32 33 33 35 36 38 39 39 39 39 39 38 38 37 37 37 36 35 35 34 34 33 32 31 30 30 29 29 28 28 28 29 28 28 27 26 26 26 26 27 27 27 27 27 26 26 26 26 26 26 27 27 27 27 26 26 27 28 28 28 28
39 39 38 37 35 34 33 33 33 32 32 30 28 27 27 26 26 25 26 26 27 28 29 31 31 32 33 34 35 37 37 37 37 38 38 38 37 37 37 37 37 36 35 35 35 34 33 32 31 30 30 29 29 29 28 29 29 29 29 28 27 27 27 27 27 27 27 27 27 27 26 26 27 27 27 27 27 27 27 27 27 28 28 29 29 28
40 39 38 37 36 34 33 33 34 34 33 31 28 27 26 26 26 25 24 24 24 24 24 26 29 31 33 35 37 37 37 37 37 37 37 37 37 37 38 38 37 36 35 35 35 34 34 33 31 31 30 30 29 29 29 29 30 30 29 29 28 27 27 28 28 28 28 28 28 27 27 27 27 28 28 28 28 28 28 27 28 28 29 29 29 29
42 40 39 39 38 36 35 34 35 35 34 32 28 26 26 26 26 25 25 24 23 23 23 23 25 28 32 35 37 39 39 38 38 37 37 37 37 38 37 37 36 36 35 34 34 34 34 33 32 31 30 30 30 29 29 30 30 30 30 29 29 28 28 28 28 28 28 28 28 28 28 28 28 28 28 29 29 28 28 28 29 29 30 30 30 29
43 42 41 40 39 38 36 36 36 36 35 32 29 26 26 26 26 26 26 26 25 25 25 24 25 26 30 34 38 40 40 40 39 39 38 37 37 37 37 36 36 35 34 34 34 34 33 33 32 31 31 30 30 29 29 30 30 30 30 30 29 29 29 29 29 29 29 29 29 28 28 28 28 29 29 29 29 29 29 29 30 30 31 31 31 30
45 44 43 42 41 40 38 37 37 36 35 32 28 26 26 26 26 26 26 26 26 26 26 26 26 26 28 32 36 39 40 40 39 38 38 37 37 37 36 35 35 34 34 34 34 33 33 33 32 32 31 31 30 29 29 29 30 31 31 30 30 29 29 29 30 30 29 29 29 29 29 29 29 29 29 30 30 30 30 30 31 31 31 31 31 31
46 45 45 44 43 41 40 39 38 37 35 32 29 27 27 27 26 25 25 25 25 25 25 26 26 27 29 32 35 38 39 39 38 38 37 37 36 36 35 34 34 33 33 33 33 33 33 33 33 32 32 31 30 29 29 29 30 31 31 31 30 30 30 30 30 30 30 30 30 30 30 30 30 30 30 30 30 30 31 31 31 32 32 32 32 31
47 47 46 45 44 43 42 40 40 38 36 33 30 29 29 28 27 26 25 25 25 25 26 26 27 28 30 33 36 38 39 39 38 37 36 36 35 35 34 33 33 32 32 32 33 33 33 33 33 32 31 30 29 29 29 29 31 31 31 31 31 30 30 30 31 31 31 30 30 30 30 30 30 31 31 31 31 31 31 32 32 33 33 33 32 31
49 48 47 46 45 45 43 42 41 40 38 36 34 33 32 30 28 27 27 26 26 26 27 27 28 30 32 34 37 39 39 39 38 37 36 35 34 34 33 32 32 31 31 32 32 33 33 33 32 32 31 30 29 29 29 30 31 32 32 32 31 31 30 31 31 31 31 31 31 31 31 31 31 31 31 32 32 32 32 32 33 33 33 33 32 32
50 49 48 47 46 45 44 43 43 42 41 39 38 37 34 32 30 29 28 27 27 27 27 27 29 30 33 35 37 39 39 38 37 36 35 34 34 33 32 31 31 31 31 32 32 33 33 33 32 31 31 30 29 29 29 30 31 32 32 32 32 31 31 31 31 31 31 31 31 31 31 31 31 32 32 32 32 32 32 32 33 33 33 33 32 31
52 50 49 47 46 45 45 44 44 43 42 41 40 38 35 33 31 30 30 28 28 27 27 28 29 31 34 36 37 38 38 37 36 35 34 33 33 32 31 31 30 31 31 31 32 32 32 32 32 31 31 30 30 29 30 30 31 32 32 32 31 31 31 31 32 32 32 32 32 32 32 32 32 32 32 32 32 32 33 33 33 33 33 33 32 31
52 51 49 48 47 46 46 46 45 44 43 42 40 38 35 34 33 33 32 30 29 28 28 29 30 32 35 36 37 37 36 36 35 34 33 33 32 31 31 30 30 31 31 31 32 32 32 32 32 32 31 31 30 30 30 31 32 32 32 32 31 31 32 32 32 32 32 32 32 32 32 32 32 32 32 32 32 33 33 34 34 34 34 33 33 32
52 51 50 49 48 48 48 47 46 45 44 42 40 37 36 35 36 36 35 32 30 29 29 30 31 33 35 36 36 36 35 35 34 34 33 33 32 31 31 31 31 31 31 31 32 32 32 32 32 32 31 31 31 31 31 31 32 32 32 31 32 32 33 33 33 33 33 33 32 32 32 33 33 33 33 33 33 33 34 35 35 35 35 34 33 32
52 51 51 50 50 50 49 49 48 47 45 43 40 38 37 37 38 38 36 33 31 30 31 31 32 33 35 36 36 35 35 35 34 34 34 33 33 32 31 31 31 31 31 32 32 32 32 32 32 32 32 32 32 32 31 31 31 31 31 31 32 32 33 33 33 33 33 33 33 33 33 33 33 33 33 33 34 34 35 35 35 35 35 35 34 33
52 52 51 51 51 50 50 50 49 48 46 43 40 38 38 39 41 40 38 35 33 33 33 33 34 35 36 36 36 36 36 35 35 35 34 34 34 33 32 32 32 32 32 32 32 32 32 33 33 33 33 33 32 32 31 31 31 31 31 31 32 32 33 33 34 34 34 33 33 33 33 33 34 34 34 34 34 34 35 35 36 36 35 35 34 33
53 52 52 51 51 51 50 49 48 47 45 43 40 39 39 41 42 42 40 37 35 35 35 35 36 36 37 37 37 37 37 37 36 36 35 35 34 34 33 33 33 33 33 33 33 33 33 33 33 33 33 33 32 31 30 30 30 30 31 31 32 33 33 34 35 35 35 34 34 34 34 34 34 34 34 34 34 35 35 36 36 36 35 35 34 33
53 52 52 51 50 50 49 48 47 46 44 42 41 40 40 41 43 43 41 39 38 37 37 37 37 38 38 38 38 38 38 38 37 37 36 36 35 35 34 34 34 33 33 33 33 33 33 33 33 33 33 32 31 30 29 29 30 30 31 31 32 33 34 34 35 35 35 35 35 35 35 35 35 35 34 34 35 35 35 36 36 36 36 35 34 33
53 52 51 50 50 49 48 47 46 45 43 42 41 41 41 42 44 44 43 41 40 39 38 39 39 39 39 39 39 39 39 38 38 37 37 36 36 35 35 35 34 34 34 34 34 34 33 33 33 33 32 31 30 30 29 29 30 30 31 31 32 33 33 34 35 35 35 35 35 36 36 36 35 35 35 35 35 35 36 36 36 36 36 35 34 33
52 51 50 50 49 48 48 47 46 44 43 43 42 42 42 43 45 45 44 43 41 40 40 39 39 39 39 39 39 39 39 39 38 38 38 37 37 37 36 36 35 35 35 34 34 34 34 33 33 32 32 31 30 29 29 29 30 30 31 32 32 33 33 34 35 35 36 36 36 36 36 36 36 35 35 35 35 36 36 36 36 36 35 35 34 33
51 51 50 49 48 48 48 47 45 44 44 43 43 43 43 44 46 46 46 44 42 41 40 40 39 39 39 39 39 39 39 39 39 39 38 38 38 37 37 36 36 35 35 35 34 34 34 33 33 32 31 30 29 29 28 29 30 30 31 32 33 33 34 34 35 35 36 36 36 36 36 36 36 36 36 36 36 36 37 37 36 36 35 35 34 33
52 51 49 49 48 49 48 47 46 45 45 45 44 43 44 45 47 48 47 45 43 41 40 40 39 39 39 39 39 39 39 39 39 39 39 39 38 38 37 37 36 36 35 35 35 34 33 33 32 32 31 30 29 29 28 28 29 31 32 33 33 34 34 34 35 35 35 35 36 36 36 36 36 36 37 37 37 37 37 37 37 36 35 35 34 33
Wind_Direction
274 275 276 276 277 276 276 275 275 273 272 272 272 274 276 278 280 280 279 278 278 277 274 270 270 274 278 277 274 270 267 264 263 264 267 269 271 271 271 269 265 260 256 253 250 246 242 238 234 234 237 242 246 249 251 252 255 257 259 260 261 262 262 263 264 266 266 267 266 264 260 255 251 248 246 245 245 246 248 251 253 253 252 250 247 241
275 276 277 278 279 279 279 279 278 277 275 275 275 276 278 279 279 278 277 276 277 277 275 272 272 274 275 274 272 268 264 259 256 255 258 260 262 265 267 266 262 258 254 250 247 244 240 236 232 231 234 240 245 248 250 252 254 256 258 260 261 262 262 262 262 263 263 263 262 259 253 247 241 238 237 236 237 240 243 247 249 250 249 246 242 238
276 277 278 279 280 280 281 281 281 280 279 278 277 277 277 277 277 275 273 273 275 275 275 274 273 273 272 271 269 266 262 256 251 249 249 251 254 258 261 261 258 255 251 248 245 242 238 234 229 228 231 238 244 248 250 251 253 255 257 259 261 262 262 262 262 261 261 260 258 254 248 242 237 234 233 233 236 242 247 251 251 249 246 242 239 235
276 276 277 277 277 278 280 281 282 282 281 280 278 277 276 276 274 272 270 270 270 270 270 269 269 269 269 268 267 265 261 255 250 246 244 245 248 252 255 255 254 252 249 246 243 240 236 231 226 225 228 235 241 246 250 252 253 254 255 257 259 260 261 261 261 260 260 260 259 256 252 247 241 237 236 238 245 252 257 256 253 248 243 239 236 232
274 273 273 274 274 275 278 280 281 282 282 281 280 278 276 274 272 270 268 267 266 265 264 264 264 265 266 267 267 265 260 255 249 244 241 241 244 247 249 250 250 248 246 243 240 238 234 229 224 222 225 232 239 245 249 252 253 254 254 256 257 258 259 259 259 259 259 260 261 261 260 256 251 247 245 249 254 258 259 256 252 245 240 237 234 231
271 270 270 271 272 273 276 277 279 280 280 280 278 276 274 271 269 268 267 265 264 263 262 261 261 262 265 268 269 266 260 254 248 243 240 240 242 244 245 245 245 245 243 241 239 236 231 226 222 220 223 229 236 243 248 251 253 254 254 255 256 257 258 258 258 257 258 260 262 263 263 262 258 255 252 252 254 255 255 254 249 243 238 234 232 229
267 267 268 268 269 271 273 274 275 276 276 275 274 271 269 267 267 267 266 265 264 262 262 261 261 262 264 268 269 266 260 253 246 242 240 240 240 241 241 241 242 241 239 238 237 234 229 224 220 219 220 226 234 241 246 250 252 253 254 255 255 256 257 258 257 257 258 260 261 263 263 261 259 255 252 250 250 251 252 251 247 241 236 232 230 228
265 265 266 267 268 269 269 270 271 271 270 269 268 267 266 265 266 266 266 265 264 263 262 261 261 262 264 268 268 264 257 251 245 241 239 239 239 239 238 239 239 238 237 237 235 231 227 223 220 218 219 224 231 238 245 249 251 252 253 254 255 256 257 257 257 257 257 258 260 261 261 259 256 252 249 248 248 249 250 249 245 240 234 231 229 226
265 266 267 267 268 268 268 268 268 268 267 267 267 266 266 266 266 266 266 265 264 263 261 260 260 262 264 266 266 261 255 248 243 240 239 239 238 238 238 238 238 237 236 235 233 229 225 222 220 217 217 221 229 237 243 247 249 251 252 252 253 254 256 257 257 256 256 257 258 259 258 256 253 250 247 246 246 247 248 247 244 238 233 229 227 225
267 268 269 269 269 269 269 268 268 268 268 268 268 268 268 267 267 266 265 264 263 262 261 260 259 261 263 264 262 257 252 246 242 240 239 239 238 238 238 238 237 236 235 234 231 227 224 222 219 216 215 220 227 235 241 245 248 250 250 251 252 253 255 255 256 255 255 255 256 256 256 254 251 248 245 244 245 245 246 245 242 236 231 227 225 223
269 270 271 272 272 271 271 271 270 269 269 269 269 269 268 267 265 265 265 264 264 263 262 260 259 260 262 261 258 254 248 243 240 238 237 237 238 238 238 238 236 235 234 232 229 226 223 222 219 215 214 218 226 234 240 244 247 248 249 250 251 252 254 254 255 254 254 254 254 254 253 251 248 245 243 242 242 244 244 243 240 234 229 226 224 222
269 271 272 273 274 274 274 274 273 272 271 270 269 268 266 265 264 264 265 265 265 264 263 261 260 260 261 260 257 251 246 241 238 235 234 234 236 237 237 237 235 233 232 230 227 224 223 221 217 213 212 217 226 234 240 244 246 248 249 250 251 252 253 253 253 254 253 253 253 253 252 249 246 243 241 240 241 242 242 241 237 232 228 225 222 220
269 270 272 273 274 275 275 275 275 273 271 269 267 266 264 263 263 263 265 266 266 265 263 262 261 261 261 260 256 250 244 240 237 234 232 232 234 236 237 236 234 232 230 228 225 223 221 219 215 211 211 217 226 233 239 243 246 248 249 250 251 252 252 253 253 253 253 252 252 252 251 248 245 242 240 239 240 241 241 239 235 231 226 223 221 219
268 269 270 271 272 273 274 275 275 273 271 268 266 265 263 262 262 263 265 266 267 266 265 263 262 261 261 259 255 249 244 240 236 233 230 231 233 236 237 236 234 232 229 226 224 221 220 216 212 209 211 217 225 233 239 243 246 247 248 249 250 251 252 252 252 252 252 252 252 252 250 248 245 242 239 238 239 240 239 237 234 229 225 222 219 218
267 268 268 269 270 271 273 275 275 273 270 268 265 263 262 262 263 264 265 267 268 268 267 265 262 262 261 258 254 249 243 239 235 231 228 229 232 235 235 234 232 230 227 224 221 219 218 214 209 208 210 217 224 232 238 243 245 247 248 249 250 251 251 252 252 252 252 252 252 251 250 248 245 242 239 238 238 238 238 236 232 227 224 221 218 216
267 268 268 268 269 270 272 274 274 273 270 267 264 262 262 262 263 264 266 268 269 269 268 265 263 262 261 258 253 247 242 237 233 229 227 227 230 233 234 232 230 228 225 221 219 217 215 211 208 207 210 216 223 230 237 242 245 247 248 248 249 250 250 251 251 251 251 251 251 250 249 247 245 241 239 238 237 237 236 234 230 226 222 220 217 216
268 268 268 268 269 270 271 272 274 274 271 267 263 261 260 260 261 262 264 266 268 269 268 265 262 261 261 256 250 244 239 233 229 227 225 226 229 232 232 230 228 225 222 219 217 215 212 209 207 208 210 215 222 229 236 241 244 246 247 248 248 249 249 250 250 250 250 250 250 249 248 247 244 241 238 237 237 236 235 232 229 225 222 219 216 215
269 269 269 269 270 270 270 271 273 273 273 270 265 261 259 258 258 258 260 262 265 267 267 265 262 261 262 258 249 241 236 230 225 223 223 225 228 230 230 228 226 223 219 216 214 212 210 208 207 208 211 215 221 228 236 241 244 245 246 247 248 248 249 249 249 249 249 249 249 248 247 246 243 240 238 236 235 235 233 230 227 224 221 218 216 215
269 269 270 271 271 271 270 271 272 273 273 272 268 264 260 258 256 256 257 258 262 265 266 265 262 261 261 258 250 240 233 227 222 221 222 224 226 228 228 226 224 221 217 214 212 210 208 208 208 209 211 215 220 228 235 240 243 245 246 247 247 248 248 248 248 248 248 248 248 247 246 245 242 239 237 235 234 233 232 229 226 223 220 217 215 214
270 270 271 273 273 273 272 272 272 273 273 273 271 267 262 259 257 256 256 257 259 262 264 264 262 260 258 255 247 238 230 224 220 219 221 224 226 227 227 225 223 219 215 212 210 208 207 208 209 210 212 215 220 227 235 240 242 244 245 246 247 247 248 248 248 247 247 247 247 246 245 244 241 238 236 234 233 232 230 228 225 222 219 217 215 214
270 271 272 274 275 275 274 273 273 272 273 273 272 270 266 262 259 258 257 257 258 259 261 262 262 259 254 249 239 230 224 220 217 218 222 226 228 229 228 226 222 218 213 210 209 207 207 208 210 211 212 215 220 227 234 239 242 244 245 246 247 247 248 248 248 247 247 247 246 246 244 243 240 237 235 233 232 230 229 227 224 221 219 216 215 214
271 271 272 274 275 276 275 274 273 272 272 272 272 271 268 264 261 259 257 256 256 256 257 258 258 256 250 239 228 221 218 217 219 222 227 229 230 230 229 227 223 218 213 210 208 208 208 209 210 211 213 216 221 227 234 238 242 243 245 246 247 247 248 248 248 247 247 246 246 245 244 242 240 237 234 232 230 229 228 226 224 221 218 216 214 214
271 271 272 273 275 275 275 274 273 272 272 272 271 269 266 262 259 257 255 253 252 252 252 253 252 248 239 226 217 214 215 218 223 227 231 231 232 231 230 227 224 219 213 210 209 209 209 210 211 212 214 217 221 227 233 238 241 243 245 246 247 247 248 248 248 247 247 246 245 244 243 241 239 236 233 231 229 228 227 225 223 220 217 216 214 214
271 271 271 272 273 274 275 274 273 272 271 270 269 266 263 259 256 254 252 250 249 248 247 246 243 236 225 215 212 213 217 222 226 228 229 230 231 231 230 228 224 219 215 212 210 210 211 211 212 213 215 217 222 227 233 238 241 243 244 246 247 247 248 248 248 247 246 245 245 244 242 241 238 236 233 230 228 227 226 224 222 220 217 215 214 214
269 269 269 270 271 272 273 273 272 271 270 269 267 264 261 257 253 250 249 247 246 244 241 237 230 221 212 209 212 217 221 224 226 226 226 228 229 230 229 227 224 219 215 213 212 211 212 213 213 214 216 219 223 228 234 239 241 243 244 245 247 247 248 248 248 247 246 245 244 243 242 240 238 235 232 230 228 226 225 224 222 219 217 215 214 214
267 267 268 268 268 269 270 271 271 270 269 267 265 262 258 253 249 246 244 243 240 236 230 223 215 208 206 209 214 219 222 222 223 224 226 228 230 230 229 227 224 220 216 213 213 213 213 214 214 215 217 220 225 230 236 240 242 243 244 245 246 247 247 247 247 246 245 244 243 242 241 239 237 234 232 229 227 226 225 223 221 219 216 215 214 214
265 266 266 266 266 266 267 267 268 268 267 265 263 261 257 252 246 242 240 236 232 225 216 207 203 202 204 210 215 218 218 217 219 224 228 231 232 232 231 228 225 221 216 214 213 214 214 215 215 217 219 223 227 233 238 241 243 244 244 245 246 246 247 247 246 246 245 243 242 241 240 238 236 233 231 228 226 225 224 223 220 218 216 215 214 214
263 265 265 265 264 264 264 264 265 265 264 263 262 261 259 255 250 243 237 230 221 212 204 201 201 204 208 212 215 216 215 214 219 226 232 234 234 234 232 229 226 221 217 214 214 215 215 216 217 219 221 225 230 235 239 242 244 245 245 245 246 246 246 246 245 244 243 242 241 239 238 237 235 233 230 228 226 225 224 222 220 218 216 215 214 214
261 263 264 264 264 263 263 263 263 263 263 263 262 261 260 258 254 249 239 226 215 207 204 206 210 214 218 220 221 219 216 217 223 230 235 236 236 235 232 228 224 220 216 214 214 215 215 217 218 220 224 227 231 236 240 244 246 247 247 246 246 246 245 245 244 243 242 241 239 238 237 236 234 232 229 227 225 224 223 222 220 217 216 215 214 214
259 262 263 264 264 264 264 264 264 263 263 262 262 262 260 259 256 252 245 234 223 217 217 221 224 227 229 230 229 226 223 225 230 236 239 238 237 234 230 226 222 218 215 213 213 214 216 218 219 222 226 229 232 236 241 245 247 248 248 248 247 246 245 244 243 242 241 239 238 237 236 234 233 231 229 226 225 224 223 221 219 217 216 215 214 214
256 259 261 263 264 264 265 265 265 265 264 263 262 261 260 259 256 253 249 243 236 232 231 232 232 232 232 232 232 232 232 235 238 241 241 239 236 232 227 222 218 215 213 212 213 214 217 219 221 223 226 229 233 236 241 245 249 250 250 249 248 246 245 243 242 240 239 238 236 235 234 233 232 230 228 226 224 223 222 221 219 217 215 215 214 214
254 256 258 260 261 262 262 263 263 263 262 262 262 262 261 260 257 253 249 245 241 239 237 235 233 231 230 231 232 235 239 242 243 243 241 237 232 228 223 218 215 213 212 212 214 216 218 220 222 224 227 230 233 236 241 246 249 251 251 250 249 247 245 243 241 239 238 236 235 234 233 232 231 229 227 225 224 223 222 220 218 216 215 214 214 214
251 251 253 255 256 256 257 257 257 256 256 258 260 262 263 261 258 253 247 243 241 241 241 240 237 235 234 235 236 239 241 242 242 241 238 234 229 224 220 217 214 213 212 213 215 217 219 220 221 224 227 229 233 237 242 246 250 252 252 251 249 247 245 242 240 238 237 235 234 233 232 231 230 228 227 225 223 222 221 219 217 216 215 214 214 214
249 248 248 249 250 251 251 251 250 250 251 252 256 261 264 263 259 253 246 243 243 245 247 248 247 244 243 242 242 242 242 241 239 237 235 231 226 222 220 217 216 215 214 215 217 219 220 221 222 224 227 230 233 238 243 247 251 253 253 252 250 247 244 241 239 237 235 234 233 231 231 230 229 228 226 224 223 222 220 219 217 215 214 214 214 214
249 247 245 245 246 247 248 247 245 245 245 248 252 258 263 263 260 255 250 249 250 252 253 254 253 251 249 247 245 244 242 240 238 236 233 229 226 223 221 219 218 217 217 218 219 220 222 223 223 225 229 232 235 239 243 248 252 254 254 253 250 247 244 241 238 236 234 232 231 230 229 229 228 227 225 224 223 221 220 218 217 215 214 214 214 214
249 247 244 243 243 244 245 244 243 241 241 243 248 255 260 261 260 257 255 255 256 257 257 256 254 252 249 247 245 243 240 239 237 234 232 229 226 224 222 221 220 220 220 221 222 223 224 224 225 227 230 234 237 241 245 249 253 255 255 254 251 247 243 240 237 235 233 231 230 229 228 228 227 226 225 223 222 221 219 218 216 215 214 214 214 214
248 246 245 243 242 242 242 242 241 239 239 241 245 251 256 258 258 257 257 258 258 258 257 255 252 249 245 242 240 238 236 234 233 231 229 228 226 225 224 224 224 224 223 224 224 225 226 226 227 229 231 234 238 243 247 251 254 256 256 254 251 247 243 239 236 234 232 230 229 228 227 227 226 225 224 223 221 220 219 217 216 215 214 214 214 214
247 246 245 244 242 241 240 240 239 239 239 241 245 249 253 254 254 254 254 255 256 255 254 252 249 245 241 238 235 233 231 229 228 227 226 226 226 226 227 227 227 227 227 227 227 227 228 228 229 230 232 235 239 244 249 253 256 257 256 254 251 246 242 238 235 233 231 229 228 227 227 226 225 224 223 222 221 219 218 217 216 215 214 213 213 214
246 246 245 244 243 242 241 239 238 239 240 243 246 248 250 250 250 250 251 252 253 252 250 248 245 241 238 234 231 229 227 226 225 225 225 225 226 227 228 229 229 229 230 230 229 229 230 230 231 232 233 236 240 244 249 254 257 258 256 253 250 245 241 237 234 232 230 228 227 226 226 225 225 224 223 222 221 219 218 217 216 215 214 214 213 213
245 245 244 243 243 242 241 239 239 239 241 243 246 247 248 247 247 247 249 250 251 250 247 244 240 237 233 230 228 225 224 223 224 224 225 226 227 228 229 230 230 230 231 231 231 231 231 232 233 233 234 237 241 246 250 254 257 257 256 253 249 245 240 237 234 231 229 227 226 225 225 225 224 224 223 222 221 219 218 216 216 215 214 214 214 213
244 245 244 243 241 241 240 239 239 239 240 242 245 246 246 245 245 245 246 247 248 248 245 241 236 232 229 226 224 223 222 222 223 224 225 226 227 229 230 230 231 231 232 232 232 233 233 234 234 235 236 238 241 246 251 254 256 257 256 253 249 244 239 235 232 230 228 226 225 225 224 224 224 223 222 222 220 219 217 216 215 214 213 213 213 213
243 243 243 242 240 238 238 237 237 237 239 241 243 244 244 243 242 242 241 243 244 245 243 238 233 228 225 223 222 221 222 222 223 224 225 226 228 229 229 230 231 231 232 233 234 234 235 235 236 236 237 238 242 246 250 253 255 256 254 252 247 241 237 233 231 229 227 225 224 224 223 223 223 223 222 221 220 218 217 215 214 213 212 212 212 212
241 242 242 240 239 237 236 236 236 236 237 239 240 241 241 240 239 238 237 238 240 241 239 235 229 225 223 221 221 221 221 222 223 224 225 227 228 229 230 230 231 232 233 234 234 235 236 236 236 237 237 239 242 246 250 253 254 254 253 250 245 240 235 232 230 228 226 224 223 223 223 223 222 222 221 220 219 218 216 215 213 212 211 211 211 211
240 240 240 239 237 236 236 235 235 235 236 236 236 236 236 236 236 235 235 234 235 236 234 230 226 223 222 221 221 221 222 223 224 225 226 228 229 229 230 231 231 232 233 234 235 235 236 237 237 238 238 240 242 246 249 252 253 253 251 248 244 240 235 232 229 227 225 224 223 222 222 222 222 221 221 220 218 217 216 214 213 212 211 211 211 210
238 238 238 237 236 236 235 235 235 235 235 234 233 232 232 233 234 234 234 233 233 232 229 226 223 222 221 221 222 222 223 224 225 226 227 228 229 230 231 231 232 233 233 234 235 236 236 237 238 238 239 241 243 247 250 252 253 252 250 247 243 239 234 231 228 225 224 222 222 221 221 221 221 221 220 219 218 216 215 214 213 212 211 211 211 211
237 236 236 236 235 236 236 236 235 234 233 231 229 228 229 231 233 234 234 233 231 229 227 224 222 221 221 222 223 223 224 225 226 227 228 229 230 231 231 232 233 233 234 235 235 236 237 237 238 239 240 242 244 247 250 252 252 251 248 245 241 237 233 229 227 224 222 221 220 220 220 220 220 220 219 218 217 216 215 214 213 212 212 211 211 211
236 235 235 235 234 235 235 235 234 233 231 229 226 225 227 229 231 233 233 232 230 227 225 223 222 222 222 223 224 225 225 226 227 228 229 230 231 231 232 233 234 234 235 235 235 236 237 238 238 239 240 243 245 248 250 252 252 250 246 243 239 236 232 229 227 225 222 221 219 219 220 220 219 219 218 217 216 215 214 213 212 212 212 211 211 211
235 235 235 234 233 233 233 233 233 231 229 226 224 224 224 227 230 231 231 230 228 226 224 223 222 222 223 224 224 225 226 227 228 229 230 230 231 232 233 233 234 235 235 236 236 236 237 237 238 239 241 243 246 248 250 251 250 248 244 240 236 233 231 228 226 224 223 221 219 219 219 219 219 218 217 216 215 213 212 212 212 211 211 211 211 211
234 234 234 233 232 231 231 231 231 229 227 225 223 222 223 225 228 230 229 228 226 225 224 223 223 223 224 224 225 226 227 228 229 229 230 231 232 232 233 233 234 235 235 236 236 237 237 237 238 239 240 243 245 248 249 250 248 245 241 237 234 231 228 227 225 224 222 221 220 219 219 219 218 217 216 215 213 212 211 211 211 211 211 211 211 211
233 233 233 232 231 230 229 230 229 228 226 224 222 221 221 223 226 227 228 226 225 224 223 223 224 224 224 225 226 226 227 228 229 230 231 231 232 233 233 234 234 235 235 236 236 237 237 238 238 239 239 241 244 247 248 248 246 243 239 235 232 228 226 225 224 223 222 221 220 220 220 219 218 217 215 213 211 210 209 209 210 210 210 210 211 211
231 231 230 229 228 228 228 227 227 226 225 223 222 220 220 222 224 225 226 224 223 222 222 223 223 224 225 225 226 227 228 229 230 231 232 233 233 234 234 235 235 235 236 236 236 237 237 239 240 241 240 241 242 244 245 245 243 241 238 234 231 227 224 223 222 222 221 221 220 220 220 219 218 217 215 212 210 208 207 208 208 209 209 210 210 210
Height
3064 3065 3066 3067 3067 3067 3068 3069 3070 3071 3071 3072 3073 3073 3073 3073 3073 3073 3073 3072 3071 3072 3073 3074 3074 3075 3075 3075 3075 3075 3075 3075 3074 3074 3073 3074 3074 3073 3073 3073 3074 3076 3077 3079 3081 3083 3084 3086 3087 3088 3089 3090 3091 3092 3092 3092 3092 3092 3092 3092 3093 3093 3093 3094 3094 3094 3094 3093 3093 3093 3094 3094 3094 3094 3094 3094 3094 3094 3094 3094 3093 3093 3094 3094 3094 3094
3061 3061 3061 3062 3062 3062 3062 3064 3065 3066 3066 3067 3068 3068 3069 3068 3068 3068 3068 3068 3068 3069 3070 3070 3071 3071 3072 3072 3072 3072 3072 3072 3071 3071 3071 3071 3071 3070 3070 3071 3071 3072 3074 3076 3079 3081 3082 3083 3084 3086 3086 3088 3089 3090 3090 3091 3091 3090 3090 3090 3091 3091 3092 3092 3092 3092 3092 3092 3092 3093 3093 3093 3093 3093 3093 3093 3092 3092 3092 3092 3092 3092 3093 3093 3093 3094
3056 3056 3056 3057 3057 3057 3057 3059 3060 3061 3061 3062 3062 3063 3064 3064 3064 3064 3064 3064 3064 3065 3066 3066 3067 3068 3068 3069 3069 3069 3069 3069 3069 3069 3069 3069 3067 3066 3067 3068 3069 3070 3071 3074 3076 3078 3079 3081 3082 3083 3084 3086 3086 3087 3088 3089 3089 3089 3089 3089 3089 3089 3090 3090 3091 3091 3091 3091 3092 3092 3092 3092 3091 3091 3091 3091 3091 3091 3091 3091 3091 3091 3092 3092 3092 3093
3052 3052 3052 3053 3053 3053 3053 3054 3055 3056 3056 3057 3058 3058 3059 3059 3059 3059 3060 3060 3061 3061 3061 3062 3063 3064 3064 3065 3066 3066 3065 3066 3066 3066 3066 3066 3065 3063 3064 3065 3066 3067 3069 3072 3074 3076 3077 3078 3080 3081 3082 3083 3084 3085 3086 3086 3087 3087 3087 3087 3087 3087 3088 3088 3089 3089 3090 3090 3090 3090 3090 3090 3089 3089 3089 3089 3089 3089 3090 3090 3090 3091 3091 3091 3091 3092
3048 3049 3049 3049 3049 3049 3050 3050 3051 3051 3052 3052 3053 3054 3054 3054 3055 3056 3056 3056 3056 3057 3057 3058 3059 3060 3060 3061 3061 3062 3062 3062 3063 3063 3064 3063 3061 3061 3062 3062 3063 3065 3068 3070 3072 3073 3074 3076 3077 3079 3080 3081 3082 3083 3084 3085 3085 3085 3086 3086 3086 3086 3086 3086 3087 3088 3088 3088 3088 3088 3088 3087 3087 3087 3087 3088 3088 3088 3088 3089 3089 3090 3090 3090 3091 3091
3045 3045 3045 3046 3046 3046 3046 3046 3047 3047 3048 3048 3049 3049 3050 3051 3051 3052 3052 3053 3053 3053 3054 3054 3055 3056 3056 3057 3058 3058 3058 3059 3060 3061 3061 3060 3059 3059 3060 3060 3061 3063 3066 3068 3070 3071 3072 3073 3075 3076 3078 3079 3080 3081 3082 3083 3083 3083 3084 3084 3084 3084 3085 3085 3086 3086 3086 3086 3086 3086 3086 3086 3086 3086 3086 3086 3087 3087 3087 3087 3088 3088 3089 3089 3090 3090
3041 3041 3042 3042 3042 3043 3043 3044 3044 3045 3045 3045 3045 3046 3046 3047 3048 3048 3049 3049 3049 3050 3050 3051 3052 3052 3053 3054 3055 3055 3056 3056 3057 3058 3057 3057 3057 3057 3058 3058 3059 3061 3064 3066 3067 3068 3069 3071 3072 3074 3075 3076 3078 3079 3080 3081 3081 3081 3082 3082 3082 3082 3083 3083 3084 3084 3084 3084 3084 3084 3084 3084 3084 3085 3085 3085 3086 3086 3086 3086 3087 3087 3088 3088 3089 3089
3038 3038 3039 3039 3040 3040 3040 3040 3041 3041 3042 3042 3042 3042 3042 3043 3044 3045 3045 3046 3046 3046 3047 3048 3049 3049 3050 3051 3052 3052 3053 3054 3055 3055 3054 3054 3055 3055 3055 3056 3057 3059 3062 3064 3065 3066 3066 3068 3070 3071 3073 3074 3075 3076 3077 3078 3079 3080 3080 3080 3080 3081 3081 3081 3082 3082 3082 3082 3082 3082 3083 3083 3083 3083 3083 3084 3084 3084 3085 3085 3086 3086 3087 3087 3087 3088
3035 3035 3036 3036 3036 3036 3036 3036 3037 3038 3038 3038 3038 3039 3039 3040 3040 3041 3041 3042 3042 3043 3043 3044 3045 3046 3046 3048 3049 3049 3050 3051 3051 3051 3051 3051 3052 3052 3052 3053 3055 3057 3060 3061 3062 3063 3064 3066 3067 3069 3070 3071 3073 3074 3075 3076 3077 3077 3078 3078 3078 3079 3079 3079 3080 3080 3081 3081 3081 3081 3081 3081 3082 3082 3082 3082 3083 3083 3083 3084 3084 3085 3086 3086 3086 3087
3033 3033 3032 3033 3033 3033 3033 3033 3033 3034 3035 3035 3035 3035 3036 3037 3037 3038 3038 3038 3038 3039 3040 3040 3041 3042 3043 3044 3046 3046 3047 3048 3048 3048 3048 3048 3049 3049 3050 3051 3053 3055 3057 3058 3059 3060 3061 3063 3065 3066 3068 3069 3071 3072 3073 3074 3075 3075 3076 3076 3076 3076 3077 3077 3078 3078 3079 3079 3079 3080 3080 3080 3080 3081 3081 3081 3081 3081 3082 3082 3083 3084 3084 3085 3085 3086
3030 3030 3030 3030 3030 3030 3030 3030 3030 3031 3032 3032 3032 3032 3033 3034 3034 3035 3035 3035 3035 3036 3036 3037 3037 3038 3039 3041 3042 3043 3044 3044 3045 3045 3046 3046 3046 3047 3048 3049 3051 3053 3054 3056 3056 3057 3059 3060 3062 3064 3065 3067 3068 3070 3071 3072 3072 3073 3074 3074 3074 3075 3075 3076 3076 3076 3077 3077 3078 3078 3078 3079 3079 3079 3079 3080 3080 3080 3081 3081 3082 3082 3083 3083 3084 3085
3027 3027 3027 3027 3027 3027 3027 3027 3028 3028 3029 3029 3029 3029 3030 3031 3031 3032 3032 3032 3032 3032 3033 3033 3034 3035 3036 3036 3037 3039 3040 3040 3041 3042 3043 3043 3044 3044 3045 3046 3048 3050 3051 3052 3054 3055 3056 3058 3059 3061 3063 3064 3066 3067 3068 3070 3070 3071 3071 3072 3072 3073 3073 3074 3074 3075 3075 3076 3076 3076 3077 3077 3077 3078 3078 3078 3079 3079 3079 3080 3080 3081 3081 3082 3083 3083
3024 3025 3025 3025 3025 3025 3025 3025 3025 3026 3026 3026 3026 3027 3027 3028 3028 3029 3029 3029 3029 3029 3029 3030 3031 3031 3032 3033 3034 3035 3036 3036 3037 3038 3039 3039 3040 3041 3042 3043 3045 3047 3048 3050 3051 3052 3054 3055 3057 3059 3060 3062 3064 3065 3066 3067 3068 3069 3069 3070 3070 3071 3071 3072 3072 3073 3073 3074 3074 3075 3075 3075 3076 3076 3076 3077 3077 3077 3078 3078 3079 3080 3080 3081 3081 3082
3022 3022 3022 3022 3022 3023 3023 3023 3023 3023 3023 3024 3024 3024 3024 3025 3026 3026 3026 3026 3026 3026 3027 3027 3027 3028 3029 3030 3031 3031 3032 3033 3034 3036 3036 3036 3037 3038 3039 3041 3042 3044 3046 3047 3048 3050 3051 3053 3054 3056 3058 3060 3061 3062 3064 3065 3066 3066 3067 3068 3068 3069 3069 3070 3070 3071 3071 3072 3072 3073 3073 3074 3074 3074 3075 3075 3076 3076 3076 3077 3077 3078 3079 3079 3080 3081
3019 3020 3020 3020 3020 3021 3021 3021 3021 3021 3021 3021 3022 3022 3022 3022 3023 3023 3023 3023 3024 3024 3024 3025 3025 3026 3026 3027 3028 3029 3030 3031 3031 3033 3034 3034 3035 3036 3037 3039 3040 3042 3043 3044 3046 3047 3049 3051 3052 3053 3055 3057 3059 3060 3061 3063 3064 3064 3065 3066 3066 3067 3067 3068 3068 3069 3069 3070 3071 3071 3071 3071 3072 3072 3073 3073 3074 3074 3075 3076 3076 3077 3077 3078 3079 3079
3016 3017 3017 3017 3017 3018 3018 3018 3018 3018 3019 3019 3019 3019 3019 3020 3020 3020 3021 3021 3021 3021 3022 3022 3023 3023 3023 3024 3025 3026 3027 3028 3029 3030 3031 3032 3033 3034 3035 3037 3038 3040 3041 3042 3043 3045 3046 3048 3049 3051 3053 3055 3056 3058 3059 3061 3061 3062 3063 3063 3064 3065 3065 3066 3066 3067 3067 3068 3069 3069 3069 3070 3070 3071 3071 3072 3072 3073 3073 3074 3075 3075 3076 3076 3077 3078
3014 3014 3014 3015 3015 3016 3016 3016 3016 3016 3016 3016 3016 3016 3016 3017 3017 3018 3018 3018 3018 3019 3019 3019 3020 3020 3021 3022 3023 3024 3025 3026 3027 3028 3029 3030 3030 3031 3033 3035 3036 3037 3038 3039 3041 3042 3044 3045 3047 3048 3050 3052 3054 3056 3057 3058 3059 3060 3061 3061 3062 3063 3063 3064 3065 3065 3066 3066 3066 3067 3067 3068 3068 3069 3069 3070 3071 3071 3072 3072 3073 3074 3074 3075 3076 3077
3010 3011 3011 3012 3012 3013 3013 3013 3013 3013 3013 3013 3014 3014 3014 3014 3014 3015 3015 3015 3016 3016 3016 3017 3017 3017 3017 3018 3020 3021 3023 3024 3025 3026 3027 3027 3028 3030 3031 3033 3034 3035 3036 3037 3038 3040 3041 3043 3044 3046 3048 3050 3051 3053 3055 3056 3057 3058 3058 3059 3060 3061 3061 3062 3062 3063 3064 3064 3065 3065 3066 3066 3066 3067 3068 3068 3069 3070 3070 3071 3071 3072 3073 3074 3075 3076
3007 3008 3009 3009 3009 3010 3010 3010 3011 3011 3011 3011 3011 3011 3011 3011 3011 3011 3011 3012 3013 3014 3014 3014 3015 3014 3014 3015 3016 3018 3020 3021 3022 3023 3024 3025 3026 3028 3030 3031 3031 3032 3033 3035 3036 3037 3039 3040 3042 3044 3045 3047 3049 3051 3052 3054 3055 3056 3056 3057 3058 3058 3059 3060 3061 3061 3062 3062 3063 3063 3064 3064 3065 3065 3066 3066 3067 3068 3069 3069 3070 3071 3071 3072 3073 3074
3004 3005 3006 3006 3006 3006 3006 3007 3007 3008 3008 3008 3008 3008 3008 3008 3008 3009 3009 3010 3011 3011 3011 3012 3012 3012 3012 3013 3014 3016 3018 3020 3021 3021 3021 3023 3025 3026 3028 3028 3029 3030 3031 3032 3034 3035 3036 3038 3039 3041 3043 3045 3046 3048 3050 3051 3052 3053 3054 3055 3056 3056 3057 3058 3058 3059 3060 3060 3061 3061 3062 3062 3063 3064 3064 3065 3066 3066 3067 3068 3069 3069 3070 3071 3072 3073
3001 3002 3003 3003 3003 3003 3003 3004 3004 3005 3004 3005 3005 3005 3005 3006 3006 3006 3006 3007 3008 3009 3009 3010 3010 3010 3010 3011 3012 3014 3016 3018 3019 3019 3020 3022 3023 3024 3026 3026 3027 3028 3029 3030 3031 3033 3034 3035 3037 3039 3041 3042 3044 3046 3048 3049 3050 3051 3052 3052 3053 3054 3055 3056 3056 3057 3058 3058 3059 3059 3060 3061 3061 3062 3062 3063 3064 3065 3066 3066 3067 3068 3069 3070 3071 3072
2999 2999 3000 3001 3001 3000 3000 3001 3001 3001 3001 3001 3001 3002 3002 3002 3003 3003 3004 3005 3006 3006 3007 3008 3008 3008 3008 3010 3012 3014 3016 3017 3017 3017 3019 3020 3021 3022 3023 3024 3025 3026 3027 3028 3029 3030 3031 3033 3035 3036 3038 3040 3042 3043 3045 3046 3048 3049 3049 3050 3051 3052 3052 3053 3054 3055 3056 3056 3057 3057 3058 3059 3059 3060 3061 3061 3062 3063 3064 3065 3066 3066 3067 3068 3069 3070
2996 2996 2997 2998 2998 2998 2997 2998 2998 2998 2998 2998 2998 2998 2999 2999 2999 3000 3001 3002 3003 3003 3004 3005 3006 3006 3007 3009 3012 3014 3015 3015 3016 3016 3018 3018 3019 3020 3021 3022 3023 3024 3025 3026 3027 3028 3029 3031 3032 3034 3036 3037 3039 3041 3043 3044 3045 3046 3047 3048 3049 3049 3050 3051 3052 3053 3053 3054 3055 3056 3056 3057 3057 3058 3059 3060 3061 3061 3062 3063 3064 3065 3066 3067 3068 3069
2993 2994 2995 2995 2995 2995 2995 2995 2995 2995 2995 2995 2995 2995 2995 2996 2996 2997 2997 2998 2999 3000 3001 3002 3003 3004 3006 3008 3010 3011 3012 3013 3014 3015 3016 3016 3016 3017 3019 3020 3021 3022 3023 3024 3025 3026 3027 3028 3030 3032 3034 3035 3037 3038 3040 3041 3043 3044 3045 3046 3046 3047 3048 3049 3050 3051 3051 3052 3053 3053 3054 3055 3056 3056 3057 3058 3059 3060 3061 3061 3062 3063 3064 3066 3066 3068
2991 2991 2991 2992 2992 2993 2992 2992 2992 2992 2992 2992 2992 2992 2992 2992 2993 2993 2994 2995 2996 2996 2997 2999 3000 3001 3003 3006 3008 3008 3009 3010 3011 3012 3013 3013 3014 3015 3016 3018 3019 3019 3021 3021 3022 3023 3025 3026 3028 3030 3031 3033 3035 3036 3037 3039 3040 3041 3042 3043 3044 3045 3046 3046 3047 3048 3049 3050 3051 3051 3052 3053 3054 3055 3055 3056 3057 3058 3059 3060 3061 3062 3063 3064 3065 3066
2988 2988 2989 2989 2990 2990 2990 2990 2990 2990 2990 2991 2991 2990 2990 2989 2989 2990 2990 2991 2991 2992 2994 2996 2997 2999 3001 3003 3005 3005 3007 3008 3010 3010 3010 3011 3011 3013 3014 3015 3016 3017 3018 3019 3021 3021 3023 3024 3026 3028 3029 3031 3032 3034 3035 3036 3038 3039 3040 3041 3042 3042 3043 3044 3045 3046 3047 3048 3048 3049 3050 3051 3052 3052 3053 3054 3056 3056 3057 3058 3059 3060 3061 3062 3064 3065
2985 2985 2986 2986 2986 2987 2987 2987 2987 2988 2988 2989 2989 2989 2989 2988 2987 2986 2986 2987 2988 2989 2990 2992 2994 2996 3000 3001 3002 3003 3005 3006 3007 3008 3007 3008 3009 3011 3012 3013 3014 3015 3016 3017 3019 3020 3021 3022 3024 3026 3027 3028 3030 3031 3033 3034 3035 3036 3037 3038 3039 3040 3041 3042 3043 3043 3044 3046 3046 3047 3048 3049 3050 3051 3051 3053 3054 3055 3056 3056 3057 3059 3060 3061 3062 3063
2981 2982 2982 2983 2983 2984 2984 2985 2985 2985 2986 2986 2987 2987 2987 2986 2986 2985 2984 2985 2986 2987 2988 2990 2992 2995 2996 2998 2999 3001 3003 3004 3005 3005 3005 3006 3007 3008 3010 3011 3012 3013 3014 3016 3016 3018 3019 3020 3022 3023 3025 3026 3027 3029 3030 3031 3033 3034 3035 3036 3037 3038 3038 3039 3040 3041 3042 3043 3044 3045 3046 3047 3048 3049 3050 3051 3052 3053 3054 3055 3056 3057 3058 3059 3061 3062
2978 2979 2979 2980 2980 2981 2981 2981 2982 2983 2983 2984 2984 2985 2985 2985 2985 2984 2984 2984 2985 2986 2987 2989 2991 2993 2994 2996 2997 2999 3001 3001 3001 3002 3003 3004 3005 3006 3007 3009 3010 3011 3012 3013 3014 3016 3017 3018 3020 3021 3022 3023 3025 3026 3027 3029 3030 3031 3032 3033 3034 3035 3036 3037 3038 3039 3040 3041 3042 3043 3044 3045 3046 3047 3048 3049 3050 3051 3052 3053 3054 3056 3056 3058 3059 3060
2975 2976 2976 2976 2977 2977 2978 2978 2979 2980 2981 2981 2982 2982 2982 2983 2983 2983 2984 2984 2985 2985 2986 2988 2990 2991 2992 2994 2996 2997 2998 2998 2998 2999 3000 3001 3002 3003 3005 3006 3007 3008 3010 3011 3012 3013 3014 3016 3017 3019 3020 3021 3022 3024 3025 3026 3028 3029 3030 3031 3032 3033 3034 3034 3035 3036 3037 3038 3040 3041 3042 3043 3044 3045 3046 3047 3048 3049 3050 3051 3052 3054 3055 3056 3057 3059
2971 2972 2972 2973 2974 2974 2975 2975 2976 2976 2977 2978 2979 2980 2980 2980 2981 2981 2982 2983 2984 2985 2986 2987 2988 2990 2991 2992 2993 2993 2994 2995 2996 2997 2998 2998 3000 3001 3003 3004 3005 3006 3007 3008 3009 3010 3011 3013 3015 3016 3017 3019 3020 3021 3022 3024 3025 3026 3027 3028 3029 3030 3031 3032 3033 3034 3035 3036 3037 3038 3040 3041 3041 3043 3044 3045 3046 3047 3048 3050 3051 3052 3053 3054 3056 3057
2968 2969 2969 2970 2971 2971 2972 2972 2973 2973 2974 2975 2976 2977 2978 2978 2978 2979 2980 2981 2981 2983 2984 2985 2986 2988 2989 2990 2990 2991 2991 2993 2994 2995 2996 2996 2997 2999 3000 3001 3002 3004 3005 3006 3007 3008 3009 3011 3013 3014 3015 3016 3017 3019 3020 3021 3022 3023 3025 3026 3027 3028 3029 3029 3030 3031 3032 3033 3035 3036 3037 3038 3040 3041 3042 3043 3044 3045 3046 3048 3049 3050 3051 3053 3054 3056
2964 2965 2966 2967 2968 2969 2969 2970 2970 2971 2971 2972 2974 2975 2976 2976 2976 2977 2977 2978 2979 2981 2982 2983 2985 2986 2986 2987 2988 2989 2990 2991 2992 2993 2993 2994 2995 2996 2998 2999 3000 3001 3003 3004 3005 3006 3007 3009 3011 3012 3013 3014 3015 3016 3017 3018 3019 3021 3022 3023 3024 3025 3026 3027 3028 3029 3030 3031 3032 3034 3035 3036 3037 3038 3040 3041 3042 3043 3045 3046 3047 3048 3050 3051 3052 3054
2960 2961 2963 2964 2964 2965 2966 2967 2967 2968 2968 2969 2970 2972 2973 2974 2974 2975 2975 2976 2977 2978 2979 2981 2982 2983 2984 2985 2985 2986 2987 2988 2989 2990 2991 2991 2993 2994 2996 2997 2998 2999 3001 3002 3003 3004 3006 3007 3008 3010 3011 3011 3012 3014 3015 3016 3017 3018 3019 3021 3021 3023 3024 3024 3025 3026 3027 3029 3030 3031 3033 3034 3035 3036 3038 3039 3040 3041 3043 3044 3045 3046 3048 3049 3051 3052
2956 2957 2959 2960 2961 2961 2962 2964 2965 2965 2966 2966 2967 2969 2971 2971 2972 2972 2973 2974 2975 2976 2976 2977 2979 2980 2981 2981 2982 2983 2984 2986 2986 2987 2988 2989 2991 2992 2993 2995 2996 2997 2999 3000 3001 3002 3004 3005 3006 3007 3008 3009 3010 3011 3012 3013 3014 3015 3016 3018 3019 3020 3021 3022 3023 3024 3025 3026 3027 3029 3031 3032 3033 3034 3036 3037 3038 3039 3041 3042 3043 3045 3046 3047 3049 3050
2951 2953 2954 2956 2957 2958 2959 2960 2961 2962 2963 2963 2964 2966 2968 2969 2970 2970 2971 2971 2972 2973 2974 2975 2976 2976 2977 2978 2979 2980 2982 2983 2984 2985 2986 2987 2989 2990 2991 2992 2994 2996 2997 2998 2999 3001 3001 3003 3004 3005 3006 3006 3007 3008 3010 3011 3012 3013 3014 3015 3016 3017 3018 3020 3021 3021 3023 3024 3025 3027 3028 3029 3031 3032 3033 3035 3036 3037 3039 3040 3041 3043 3044 3046 3047 3048
2947 2948 2949 2951 2953 2954 2955 2956 2958 2959 2960 2960 2961 2963 2966 2967 2967 2968 2968 2969 2970 2970 2971 2972 2973 2973 2974 2975 2976 2978 2979 2981 2982 2983 2984 2986 2987 2988 2989 2991 2992 2994 2995 2996 2997 2999 3000 3001 3002 3003 3003 3004 3005 3006 3007 3009 3009 3010 3011 3012 3014 3015 3016 3017 3018 3019 3020 3021 3023 3024 3026 3027 3028 3030 3031 3032 3034 3035 3036 3038 3039 3041 3042 3044 3045 3046
2943 2944 2945 2947 2948 2950 2951 2953 2954 2956 2956 2957 2959 2961 2963 2964 2965 2965 2966 2966 2967 2968 2968 2969 2970 2971 2971 2972 2973 2975 2976 2978 2979 2980 2982 2983 2985 2986 2988 2989 2991 2992 2993 2994 2995 2996 2997 2998 2999 3000 3001 3002 3003 3004 3005 3006 3007 3008 3009 3010 3011 3012 3013 3014 3016 3016 3018 3019 3021 3022 3023 3025 3026 3027 3029 3030 3031 3033 3034 3036 3037 3039 3040 3042 3043 3045
2938 2940 2941 2943 2944 2946 2947 2949 2951 2952 2953 2954 2956 2958 2960 2961 2962 2962 2963 2963 2964 2965 2966 2966 2967 2967 2968 2969 2971 2972 2973 2975 2976 2978 2979 2981 2983 2984 2986 2987 2989 2990 2991 2992 2993 2994 2995 2996 2997 2998 2999 3000 3001 3002 3003 3003 3004 3005 3006 3007 3008 3009 3011 3012 3013 3014 3016 3017 3018 3020 3021 3022 3024 3025 3026 3028 3029 3031 3032 3034 3035 3037 3038 3040 3041 3043
2934 2936 2937 2939 2941 2942 2944 2946 2947 2949 2950 2951 2953 2955 2957 2958 2959 2959 2960 2961 2961 2962 2963 2963 2964 2965 2966 2966 2968 2969 2971 2972 2974 2975 2977 2979 2980 2982 2983 2985 2986 2988 2989 2990 2991 2991 2993 2994 2995 2996 2997 2997 2998 2999 3000 3001 3001 3002 3003 3004 3005 3006 3008 3010 3011 3012 3013 3014 3016 3017 3019 3020 3021 3023 3024 3026 3027 3029 3030 3032 3033 3035 3037 3038 3040 3041
2930 2932 2933 2935 2937 2939 2941 2942 2944 2945 2947 2948 2950 2951 2953 2954 2955 2956 2957 2958 2959 2960 2960 2961 2961 2962 2963 2964 2966 2967 2968 2970 2971 2973 2975 2976 2978 2979 2981 2982 2984 2985 2986 2987 2988 2989 2990 2991 2992 2993 2994 2995 2996 2997 2997 2998 2999 2999 3000 3001 3002 3004 3006 3007 3008 3009 3011 3012 3013 3015 3016 3018 3019 3021 3022 3024 3025 3027 3028 3030 3031 3033 3035 3036 3038 3040
2926 2928 2929 2931 2934 2935 2936 2938 2940 2941 2943 2944 2946 2947 2948 2950 2951 2952 2953 2954 2956 2956 2957 2958 2959 2959 2961 2962 2963 2965 2966 2967 2969 2971 2972 2974 2975 2976 2978 2980 2981 2982 2983 2984 2985 2986 2987 2988 2989 2990 2991 2992 2993 2994 2995 2996 2996 2996 2997 2998 3000 3002 3003 3004 3005 3007 3008 3010 3011 3013 3014 3016 3017 3019 3020 3022 3023 3025 3026 3028 3029 3031 3033 3034 3036 3038
2921 2923 2925 2927 2929 2931 2932 2934 2936 2937 2939 2941 2942 2943 2945 2946 2948 2949 2950 2951 2952 2953 2954 2955 2956 2957 2958 2959 2961 2962 2964 2965 2967 2968 2970 2971 2972 2974 2976 2977 2978 2980 2981 2981 2982 2983 2985 2986 2986 2987 2988 2989 2990 2991 2992 2993 2993 2993 2994 2996 2997 2998 3000 3001 3003 3004 3006 3007 3009 3010 3012 3013 3015 3016 3018 3019 3021 3022 3024 3026 3027 3029 3031 3032 3034 3036
2917 2919 2921 2923 2925 2926 2928 2930 2932 2933 2935 2936 2938 2940 2941 2943 2945 2946 2946 2947 2948 2950 2951 2952 2953 2954 2956 2957 2958 2960 2961 2963 2965 2966 2967 2969 2970 2971 2973 2974 2975 2976 2978 2979 2980 2981 2981 2982 2983 2984 2986 2986 2987 2988 2989 2990 2990 2991 2991 2993 2994 2996 2997 2999 3001 3002 3004 3005 3006 3008 3010 3011 3013 3014 3016 3017 3019 3020 3022 3024 3025 3027 3029 3030 3032 3033
2911 2913 2915 2917 2919 2921 2923 2925 2927 2929 2931 2933 2935 2936 2938 2940 2941 2942 2943 2944 2945 2946 2947 2949 2950 2951 2953 2954 2956 2957 2959 2960 2962 2963 2965 2966 2967 2969 2970 2971 2972 2974 2975 2976 2977 2978 2979 2980 2981 2981 2982 2983 2984 2985 2986 2986 2987 2988 2989 2990 2991 2993 2995 2997 2998 3000 3001 3003 3004 3006 3007 3009 3010 3011 3013 3015 3016 3018 3020 3021 3023 3025 3027 3028 3030 3031
2906 2908 2910 2912 2915 2917 2918 2920 2923 2925 2927 2929 2931 2933 2935 2937 2938 2939 2940 2941 2942 2943 2944 2945 2947 2948 2949 2951 2953 2954 2956 2957 2959 2961 2962 2963 2964 2966 2967 2968 2969 2971 2971 2973 2974 2975 2976 2976 2977 2978 2979 2980 2981 2981 2982 2983 2984 2985 2986 2987 2989 2991 2992 2994 2996 2997 2998 3000 3002 3003 3005 3006 3007 3009 3011 3012 3014 3016 3018 3020 3021 3023 3025 3026 3028 3030
2900 2902 2905 2908 2910 2912 2914 2916 2919 2921 2923 2925 2927 2929 2931 2933 2935 2936 2936 2938 2939 2940 2941 2942 2944 2945 2946 2948 2950 2951 2953 2955 2956 2957 2959 2960 2962 2963 2964 2965 2966 2967 2969 2970 2971 2972 2973 2974 2974 2975 2976 2977 2978 2979 2980 2980 2981 2982 2983 2985 2986 2988 2990 2991 2993 2995 2996 2998 2999 3001 3002 3003 3005 3007 3009 3010 3012 3014 3016 3018 3020 3021 3023 3025 3026 3028
2896 2898 2901 2903 2906 2908 2910 2912 2914 2916 2918 2920 2923 2925 2927 2929 2931 2932 2933 2934 2935 2936 2938 2939 2940 2942 2943 2945 2947 2949 2950 2952 2953 2955 2956 2957 2959 2960 2961 2962 2964 2965 2966 2967 2968 2969 2970 2971 2971 2972 2973 2974 2975 2976 2977 2977 2978 2979 2981 2982 2984 2985 2987 2989 2991 2992 2994 2995 2997 2998 3000 3001 3003 3005 3006 3008 3010 3012 3014 3016 3017 3019 3021 3022 3024 3026
2891 2894 2896 2899 2901 2904 2906 2907 2910 2912 2914 2916 2919 2921 2923 2925 2927 2928 2930 2931 2932 2933 2934 2936 2937 2938 2940 2942 2944 2946 2947 2949 2950 2951 2953 2954 2956 2957 2958 2959 2961 2962 2963 2964 2965 2966 2966 2967 2968 2969 2970 2971 2972 2973 2974 2975 2976 2977 2978 2980 2981 2983 2985 2986 2988 2990 2991 2993 2995 2996 2997 2999 3001 3003 3004 3006 3007 3010 3011 3014 3016 3017 3019 3021 3022 3024
2887 2889 2891 2894 2897 2899 2901 2903 2906 2908 2910 2912 2914 2917 2919 2921 2923 2924 2926 2927 2928 2930 2931 2932 2934 2936 2937 2939 2941 2943 2944 2946 2947 2948 2950 2951 2952 2954 2955 2956 2957 2959 2960 2961 2962 2963 2964 2964 2965 2966 2967 2968 2969 2970 2971 2972 2973 2974 2976 2977 2979 2981 2982 2984 2986 2987 2989 2991 2992 2994 2995 2997 2999 3000 3002 3003 3005 3007 3009 3011 3013 3015 3017 3019 3020 3022
2882 2885 2887 2890 2892 2894 2897 2899 2902 2904 2906 2908 2910 2912 2915 2917 2919 2920 2922 2923 2925 2926 2927 2929 2931 2932 2934 2936 2938 2940 2941 2943 2944 2946 2947 2948 2949 2951 2952 2953 2955 2956 2957 2958 2959 2960 2961 2961 2962 2963 2964 2965 2966 2967 2968 2969 2971 2972 2973 2975 2976 2978 2980 2981 2983 2985 2986 2988 2990 2991 2993 2995 2996 2998 2999 3001 3003 3005 3007 3009 3011 3013 3015 3016 3018 3020